{"data":{"norad_id":62892,"epoch":"2026-09-21T09:15:58.516416Z","epoch_age_seconds":91595,"freshness":"FRESH","line1":"1 62892U 25024P   26264.38609394  .00011449  00000+0  42481-3 0  9992","line2":"2 62892  42.9984 300.3079 0000862 259.8930 100.1825 15.27587802 92192","mean_motion":15.27587802,"eccentricity":8.62e-5,"inclination_deg":42.9984,"raan_deg":300.3079,"arg_perigee_deg":259.893,"mean_anomaly_deg":100.1825,"bstar":0.00042481,"rev_number":9219,"period_min":94.266267255779,"perigee_km":482.43430191665,"apogee_km":483.61716637201,"semimajor_km":6861.1627341443,"source":"CELESTRAK","updated_at":"2026-09-22T09:00:49.704595Z"}}